Air Quality Table

TIMESTAMP NO2 O3 PM2.5 TEMP HUM AIRPRES WS WD NO
2022-01-21 06:00 N/A 81.2 µg/m3 6.3 µg/m3 10.6 °C N/A 1,009.82 mbar 1.1 m/s 292.65 Deg N/A
2022-01-21 05:00 N/A 86.94 µg/m3 3.82 µg/m3 10.63 °C N/A 1,009.94 mbar 0.83 m/s 291.2 Deg N/A
2022-01-21 04:00 N/A 90.11 µg/m3 3.77 µg/m3 10.95 °C N/A 1,010.29 mbar 0.91 m/s 294.42 Deg N/A
2022-01-21 03:00 N/A 90.03 µg/m3 6.13 µg/m3 11.27 °C N/A 1,010.79 mbar 1.24 m/s 301.42 Deg N/A
2022-01-21 02:00 N/A 86.37 µg/m3 6.77 µg/m3 11.26 °C N/A 1,011.00 mbar 1.13 m/s 292.67 Deg N/A
2022-01-21 01:00 N/A 88.22 µg/m3 6.36 µg/m3 11.59 °C N/A 1,011.42 mbar 1.26 m/s 301.93 Deg N/A
2022-01-21 00:00 N/A 83.4 µg/m3 9.48 µg/m3 11.98 °C N/A 1,011.85 mbar 1.39 m/s 287.42 Deg N/A
2022-01-20 23:00 N/A 67.18 µg/m3 9.35 µg/m3 11.03 °C N/A 1,012.18 mbar 0.69 m/s 302.91 Deg N/A
2022-01-20 22:00 N/A 67.18 µg/m3 10.61 µg/m3 10.94 °C N/A 1,012.32 mbar 0.42 m/s 306.67 Deg N/A
2022-01-20 21:00 N/A 44.23 µg/m3 8.42 µg/m3 10.89 °C N/A 1,012.28 mbar 0.48 m/s 283.8 Deg N/A
2022-01-20 20:00 N/A 61.81 µg/m3 7.89 µg/m3 11.55 °C N/A 1,012.29 mbar 0.54 m/s 295.75 Deg N/A
2022-01-20 19:00 N/A 54 µg/m3 5.98 µg/m3 12.17 °C N/A 1,012.18 mbar 0.68 m/s 292.95 Deg N/A
2022-01-20 18:00 N/A 48.74 µg/m3 5.36 µg/m3 12.78 °C N/A 1,012.05 mbar 0.7 m/s 301.63 Deg N/A
2022-01-20 17:00 N/A 68.45 µg/m3 4.69 µg/m3 13.78 °C N/A 1,012.03 mbar 1.09 m/s 319.61 Deg N/A
2022-01-20 16:00 N/A 75.11 µg/m3 3.24 µg/m3 14.19 °C N/A 1,012.08 mbar 0.95 m/s 330.45 Deg N/A
2022-01-20 15:00 N/A 79.73 µg/m3 5.9 µg/m3 15.19 °C N/A 1,012.36 mbar 1.06 m/s 325.93 Deg N/A
2022-01-20 14:00 N/A 79.49 µg/m3 3.54 µg/m3 14.58 °C N/A 1,013.04 mbar 1.25 m/s 343.85 Deg N/A
2022-01-20 13:00 N/A 77.16 µg/m3 3.75 µg/m3 14.53 °C N/A 1,013.74 mbar 1.25 m/s 324.91 Deg N/A
2022-01-20 12:00 N/A 69.36 µg/m3 5.6 µg/m3 13.71 °C N/A 1,014.85 mbar 1.19 m/s 313.33 Deg N/A
2022-01-20 11:00 N/A 72.57 µg/m3 7.27 µg/m3 14.61 °C N/A 1,015.11 mbar 1.51 m/s 293.47 Deg N/A
2022-01-20 10:00 N/A 63.56 µg/m3 13.85 µg/m3 14.18 °C N/A 1,015.05 mbar 1.3 m/s 265.02 Deg N/A
2022-01-20 09:00 N/A 19.74 µg/m3 17.7 µg/m3 12.14 °C N/A 1,015.12 mbar 0.69 m/s 245.63 Deg N/A
2022-01-20 08:00 N/A 2.12 µg/m3 9.31 µg/m3 9.57 °C N/A 1,015.51 mbar 0.4 m/s 276.28 Deg N/A
2022-01-20 07:00 N/A 13.08 µg/m3 4.41 µg/m3 9.88 °C N/A 1,015.47 mbar 0.49 m/s 294.17 Deg N/A
2022-01-20 06:00 N/A 36.19 µg/m3 3.33 µg/m3 9.73 °C N/A 1,015.36 mbar 0.59 m/s 285.29 Deg N/A
2022-01-20 05:00 N/A 59.9 µg/m3 2.61 µg/m3 9.94 °C N/A 1,015.52 mbar 0.9 m/s 279.97 Deg N/A
2022-01-20 04:00 N/A 55.06 µg/m3 2.41 µg/m3 10.56 °C N/A 1,016.00 mbar 0.61 m/s 279.8 Deg N/A
2022-01-20 03:00 N/A 58.08 µg/m3 3.24 µg/m3 10.79 °C N/A 1,016.48 mbar 0.62 m/s 288.75 Deg N/A
2022-01-20 02:00 N/A 55.96 µg/m3 3.9 µg/m3 9.95 °C N/A 1,016.84 mbar 0.75 m/s 289.03 Deg N/A
2022-01-20 01:00 N/A 53.39 µg/m3 3.45 µg/m3 9.71 °C N/A 1,017.13 mbar 0.62 m/s 280.48 Deg N/A
2022-01-20 00:00 N/A 51.04 µg/m3 7.02 µg/m3 10.11 °C N/A 1,017.53 mbar 0.75 m/s 285.23 Deg N/A
2022-01-19 23:00 N/A 48.91 µg/m3 10.12 µg/m3 10.53 °C N/A 1,017.85 mbar 0.52 m/s 275.8 Deg N/A
2022-01-19 22:00 N/A 41.63 µg/m3 14.43 µg/m3 11.33 °C N/A 1,018.01 mbar 0.33 m/s 251.23 Deg N/A
2022-01-19 21:00 N/A 25.7 µg/m3 13.05 µg/m3 11.63 °C N/A 1,018.08 mbar 0.35 m/s 214.02 Deg N/A
2022-01-19 20:00 N/A 22.67 µg/m3 9.31 µg/m3 12.12 °C N/A 1,017.99 mbar 0.51 m/s 214.29 Deg N/A
2022-01-19 19:00 N/A 44.9 µg/m3 5.3 µg/m3 12.08 °C N/A 1,018.06 mbar 0.87 m/s 159.07 Deg N/A
2022-01-19 18:00 N/A 64.64 µg/m3 7.02 µg/m3 12.93 °C N/A 1,017.66 mbar 1.79 m/s 175.37 Deg N/A
2022-01-19 17:00 N/A 72.01 µg/m3 5.51 µg/m3 14.16 °C N/A 1,017.36 mbar 1.78 m/s 198.37 Deg N/A
2022-01-19 16:00 N/A 77 µg/m3 4.01 µg/m3 14.71 °C N/A 1,017.40 mbar 2.01 m/s 213.12 Deg N/A
2022-01-19 15:00 N/A 78.14 µg/m3 6 µg/m3 14.47 °C N/A 1,017.77 mbar 1.74 m/s 216.76 Deg N/A
2022-01-19 14:00 N/A 72.66 µg/m3 6.04 µg/m3 14.28 °C N/A 1,018.13 mbar 1.81 m/s 209.85 Deg N/A
2022-01-19 13:00 N/A 66.02 µg/m3 7.08 µg/m3 14.33 °C N/A 1,018.98 mbar 1.97 m/s 189.87 Deg N/A
2022-01-19 12:00 N/A 60.48 µg/m3 11.07 µg/m3 14.38 °C N/A 1,019.52 mbar 1.74 m/s 166.9 Deg N/A
2022-01-19 11:00 N/A 49.95 µg/m3 19.71 µg/m3 13.95 °C N/A 1,019.84 mbar 1.61 m/s 162.57 Deg N/A
2022-01-19 10:00 N/A 11.25 µg/m3 24.04 µg/m3 12.81 °C N/A 1,019.92 mbar 0.9 m/s 173.07 Deg N/A
2022-01-19 09:00 N/A 3.28 µg/m3 15.62 µg/m3 11.57 °C N/A 1,019.50 mbar 0.28 m/s 269.52 Deg N/A
2022-01-19 08:00 N/A 2.2 µg/m3 7.95 µg/m3 10.98 °C N/A 1,019.29 mbar 0.25 m/s 266.88 Deg N/A
2022-01-19 07:00 N/A 30 µg/m3 3.99 µg/m3 11.18 °C N/A 1,018.78 mbar 0.38 m/s 329.25 Deg N/A
2022-01-19 06:00 N/A 51.94 µg/m3 1.97 µg/m3 11.33 °C N/A 1,018.52 mbar 0.56 m/s 340.36 Deg N/A
2022-01-19 05:00 N/A 61.61 µg/m3 1.76 µg/m3 11.28 °C N/A 1,018.47 mbar 0.37 m/s 334.49 Deg N/A
2022-01-19 04:00 N/A 59.05 µg/m3 2.58 µg/m3 10.77 °C N/A 1,018.70 mbar 0.29 m/s 318.8 Deg N/A
2022-01-19 03:00 N/A 49.98 µg/m3 5.58 µg/m3 10.36 °C N/A 1,018.87 mbar 0.36 m/s 302.96 Deg N/A
2022-01-19 02:00 N/A 57 µg/m3 7.25 µg/m3 10.44 °C N/A 1,019.04 mbar 0.37 m/s 308.58 Deg N/A
2022-01-19 01:00 N/A 52.82 µg/m3 10.12 µg/m3 10.62 °C N/A 1,019.22 mbar 0.42 m/s 293.24 Deg N/A
2022-01-19 00:00 N/A 46.56 µg/m3 10.03 µg/m3 10.36 °C N/A 1,019.40 mbar 0.37 m/s 300.17 Deg N/A
2022-01-18 23:00 N/A 43.67 µg/m3 11.37 µg/m3 9.68 °C N/A 1,019.84 mbar 0.41 m/s 296.99 Deg N/A
2022-01-18 22:00 N/A 40.9 µg/m3 16.51 µg/m3 9.85 °C N/A 1,019.65 mbar 0.44 m/s 293.36 Deg N/A
2022-01-18 21:00 N/A 43.26 µg/m3 15.36 µg/m3 10.23 °C N/A 1,019.59 mbar 0.34 m/s 297.41 Deg N/A
2022-01-18 20:00 N/A 45.34 µg/m3 13.39 µg/m3 10.78 °C N/A 1,019.29 mbar 0.32 m/s 304.34 Deg N/A
2022-01-18 19:00 N/A 50.75 µg/m3 8.19 µg/m3 11.12 °C N/A 1,018.84 mbar 0.31 m/s 236.62 Deg N/A
2022-01-18 18:00 N/A 47.15 µg/m3 3.77 µg/m3 12.04 °C N/A 1,018.17 mbar 0.37 m/s 320.43 Deg N/A
2022-01-18 17:00 N/A 77.1 µg/m3 2.2 µg/m3 13.38 °C N/A 1,017.64 mbar 1.18 m/s 99.56 Deg N/A
2022-01-18 16:00 N/A 79.79 µg/m3 2.82 µg/m3 13.49 °C N/A 1,017.44 mbar 1.36 m/s 94.9 Deg N/A
2022-01-18 15:00 N/A 84.49 µg/m3 2.27 µg/m3 14.67 °C N/A 1,017.09 mbar 1.81 m/s 16.82 Deg N/A
2022-01-18 14:00 N/A 86.57 µg/m3 3.71 µg/m3 14.75 °C N/A 1,017.20 mbar 2.24 m/s 16.85 Deg N/A
2022-01-18 13:00 N/A 83.51 µg/m3 2.63 µg/m3 14.83 °C N/A 1,017.66 mbar 1.87 m/s 98.94 Deg N/A
2022-01-18 12:00 N/A 81.09 µg/m3 3.73 µg/m3 14.56 °C N/A 1,018.07 mbar 2.58 m/s 99.27 Deg N/A
2022-01-18 11:00 N/A 73.78 µg/m3 4.92 µg/m3 14.07 °C N/A 1,018.13 mbar 1.76 m/s 184.32 Deg N/A
2022-01-18 10:00 N/A 59.39 µg/m3 4.56 µg/m3 13.74 °C N/A 1,017.47 mbar 1 m/s 343.76 Deg N/A
2022-01-18 09:00 N/A 49.32 µg/m3 5.19 µg/m3 12.09 °C N/A 1,016.92 mbar 0.66 m/s 326.89 Deg N/A
2022-01-18 08:00 N/A 45.89 µg/m3 3.69 µg/m3 11.36 °C N/A 1,016.46 mbar 0.52 m/s 326.94 Deg N/A
2022-01-18 07:00 N/A 55.52 µg/m3 1.31 µg/m3 11.13 °C N/A 1,015.95 mbar 0.66 m/s 333.99 Deg N/A
2022-01-18 06:00 N/A 65.48 µg/m3 0.72 µg/m3 10.62 °C N/A 1,015.43 mbar 0.66 m/s 333.06 Deg N/A
2022-01-18 05:00 N/A 70.62 µg/m3 2.12 µg/m3 10.61 °C N/A 1,015.02 mbar 0.81 m/s 322.94 Deg N/A
2022-01-18 04:00 N/A 69.24 µg/m3 1.5 µg/m3 10.53 °C N/A 1,015.11 mbar 0.69 m/s 323.49 Deg N/A
2022-01-18 03:00 N/A 69.96 µg/m3 1.2 µg/m3 10.75 °C N/A 1,015.01 mbar 0.83 m/s 339.84 Deg N/A
2022-01-18 02:00 N/A 74.78 µg/m3 2.05 µg/m3 11.3 °C N/A 1,014.93 mbar 0.79 m/s 315.18 Deg N/A
2022-01-18 01:00 N/A 76.41 µg/m3 3.16 µg/m3 11.83 °C N/A 1,014.85 mbar 1.08 m/s 333.13 Deg N/A
2022-01-18 00:00 N/A 73.96 µg/m3 1.4 µg/m3 12.13 °C N/A 1,014.75 mbar 1.4 m/s 348.62 Deg N/A
2022-01-17 23:00 N/A 75.9 µg/m3 1.35 µg/m3 12.2 °C N/A 1,014.66 mbar 0.99 m/s 341.57 Deg N/A
2022-01-17 22:00 N/A 78.38 µg/m3 3.28 µg/m3 12.19 °C N/A 1,014.69 mbar 0.98 m/s 327.54 Deg N/A
2022-01-17 21:00 N/A 80.42 µg/m3 2.33 µg/m3 12.7 °C N/A 1,014.64 mbar 1.28 m/s 333.72 Deg N/A
2022-01-17 20:00 N/A 82.5 µg/m3 2.39 µg/m3 12.86 °C N/A 1,014.18 mbar 1.06 m/s 320.63 Deg N/A
2022-01-17 19:00 N/A 84.79 µg/m3 3.28 µg/m3 12.89 °C N/A 1,013.94 mbar 1.32 m/s 333.55 Deg N/A
2022-01-17 18:00 N/A 84.93 µg/m3 4.54 µg/m3 13.01 °C N/A 1,013.61 mbar 1.46 m/s 337.17 Deg N/A
2022-01-17 17:00 N/A 85.77 µg/m3 5.13 µg/m3 13.45 °C N/A 1,013.30 mbar 1.57 m/s 328.92 Deg N/A
2022-01-17 16:00 N/A 89.74 µg/m3 4.77 µg/m3 14.44 °C N/A 1,013.23 mbar 1.71 m/s 330.77 Deg N/A
2022-01-17 15:00 N/A 85.18 µg/m3 4.75 µg/m3 14.41 °C N/A 1,013.20 mbar 1.87 m/s 335.61 Deg N/A
2022-01-17 14:00 N/A 83.77 µg/m3 3.01 µg/m3 14.94 °C N/A 1,013.60 mbar 2.15 m/s 329.37 Deg N/A
2022-01-17 13:00 N/A 80.52 µg/m3 4.07 µg/m3 14.7 °C N/A 1,014.42 mbar 1.91 m/s 334.66 Deg N/A
2022-01-17 12:00 N/A 79.19 µg/m3 1.57 µg/m3 15.03 °C N/A 1,014.88 mbar 1.65 m/s 327.42 Deg N/A
2022-01-17 11:00 N/A 76.82 µg/m3 2.84 µg/m3 14.75 °C N/A 1,015.82 mbar 1.52 m/s 335.73 Deg N/A
2022-01-17 10:00 N/A 65.14 µg/m3 4.24 µg/m3 13.77 °C N/A 1,015.55 mbar 1.38 m/s 322.02 Deg N/A
2022-01-17 09:00 N/A 42.38 µg/m3 3.31 µg/m3 12.45 °C N/A 1,015.34 mbar 0.5 m/s 345.61 Deg N/A
2022-01-17 08:00 N/A 49.65 µg/m3 2.86 µg/m3 11.15 °C N/A 1,015.38 mbar 0.49 m/s 326.69 Deg N/A
2022-01-17 07:00 N/A 58.99 µg/m3 2.39 µg/m3 11.11 °C N/A 1,015.19 mbar 0.73 m/s 325.99 Deg N/A
2022-01-17 06:00 N/A 64.43 µg/m3 1.93 µg/m3 11.44 °C N/A 1,014.90 mbar 0.75 m/s 336.84 Deg N/A
2022-01-17 05:00 N/A 70.24 µg/m3 2.39 µg/m3 11.37 °C N/A 1,014.67 mbar 0.65 m/s 318.17 Deg N/A
2022-01-17 04:00 N/A 68.3 µg/m3 2.52 µg/m3 11.36 °C N/A 1,014.80 mbar 0.54 m/s 330.76 Deg N/A
2022-01-17 03:00 N/A 66.84 µg/m3 1.67 µg/m3 11.36 °C N/A 1,015.07 mbar 0.43 m/s 328.21 Deg N/A
2022-01-17 02:00 N/A 68.18 µg/m3 2.92 µg/m3 11.34 °C N/A 1,014.96 mbar 0.93 m/s 349.39 Deg N/A
2022-01-17 01:00 N/A 65.04 µg/m3 5.66 µg/m3 11.3 °C N/A 1,015.08 mbar 0.82 m/s 332.1 Deg N/A
2022-01-17 00:00 N/A 65.18 µg/m3 9.78 µg/m3 11.29 °C N/A 1,015.27 mbar 0.57 m/s 331.99 Deg N/A
2022-01-16 23:00 N/A 58.38 µg/m3 13.71 µg/m3 11.07 °C N/A 1,015.59 mbar 0.36 m/s 330.86 Deg N/A
2022-01-16 22:00 N/A 55.79 µg/m3 11.14 µg/m3 11.03 °C N/A 1,015.60 mbar 0.35 m/s 334.82 Deg N/A
2022-01-16 21:00 N/A 52.52 µg/m3 11.94 µg/m3 11.36 °C N/A 1,015.33 mbar 0.34 m/s 328.38 Deg N/A
2022-01-16 20:00 N/A 30.54 µg/m3 9.04 µg/m3 11.33 °C N/A 1,014.87 mbar 0.4 m/s 291.75 Deg N/A
2022-01-16 19:00 N/A 34.91 µg/m3 6.26 µg/m3 12.04 °C N/A 1,014.46 mbar 0.31 m/s 297.26 Deg N/A
2022-01-16 18:00 N/A 50.52 µg/m3 6.11 µg/m3 13.54 °C N/A 1,013.88 mbar 0.37 m/s 295.34 Deg N/A
2022-01-16 17:00 N/A 76.84 µg/m3 4.2 µg/m3 15.08 °C N/A 1,013.30 mbar 0.96 m/s 80.48 Deg N/A
2022-01-16 16:00 N/A 82.65 µg/m3 3.45 µg/m3 16.74 °C N/A 1,013.09 mbar 0.66 m/s 230.52 Deg N/A
2022-01-16 15:00 N/A 83.5 µg/m3 4.32 µg/m3 16.59 °C N/A 1,013.02 mbar 0.96 m/s 167.95 Deg N/A
2022-01-16 14:00 N/A 80.49 µg/m3 3.67 µg/m3 16.52 °C N/A 1,013.12 mbar 0.97 m/s 328.77 Deg N/A
2022-01-16 13:00 N/A 76.29 µg/m3 3.22 µg/m3 16.19 °C N/A 1,013.50 mbar 1.09 m/s 251.53 Deg N/A
2022-01-16 12:00 N/A 69.5 µg/m3 5.03 µg/m3 15.84 °C N/A 1,013.86 mbar 0.89 m/s 257.77 Deg N/A
2022-01-16 11:00 N/A 67.56 µg/m3 5.64 µg/m3 15.35 °C N/A 1,014.03 mbar 0.84 m/s 317.64 Deg N/A
2022-01-16 10:00 N/A 54.68 µg/m3 4.94 µg/m3 15.1 °C N/A 1,013.77 mbar 0.6 m/s 164.51 Deg N/A
2022-01-16 09:00 N/A 26.11 µg/m3 5.41 µg/m3 11.09 °C N/A 1,013.37 mbar 0.52 m/s 282.3 Deg N/A
2022-01-16 08:00 N/A 15.61 µg/m3 5.45 µg/m3 8.13 °C N/A 1,013.13 mbar 0.55 m/s 298.43 Deg N/A
2022-01-16 07:00 N/A 21.67 µg/m3 5.77 µg/m3 7.58 °C N/A 1,012.41 mbar 0.38 m/s 289.15 Deg N/A
2022-01-16 06:00 N/A 26.53 µg/m3 2.33 µg/m3 8.3 °C N/A 1,011.62 mbar 0.46 m/s 299.47 Deg N/A
2022-01-16 05:00 N/A 34.57 µg/m3 1.9 µg/m3 8.31 °C N/A 1,011.64 mbar 0.74 m/s 294.67 Deg N/A
2022-01-16 04:00 N/A 34.46 µg/m3 1.33 µg/m3 8.19 °C N/A 1,012.03 mbar 0.51 m/s 295.62 Deg N/A
2022-01-16 03:00 N/A 35 µg/m3 1.5 µg/m3 8.28 °C N/A 1,011.91 mbar 0.46 m/s 291.48 Deg N/A
2022-01-16 02:00 N/A 29.07 µg/m3 2.35 µg/m3 8.47 °C N/A 1,011.25 mbar 0.66 m/s 295.15 Deg N/A
2022-01-16 01:00 N/A 32.4 µg/m3 1.63 µg/m3 8.39 °C N/A 1,011.59 mbar 0.53 m/s 292.37 Deg N/A
2022-01-16 00:00 N/A 41.96 µg/m3 8.19 µg/m3 9.02 °C N/A 1,011.24 mbar 0.34 m/s 303.14 Deg N/A
2022-01-15 23:00 N/A 45.05 µg/m3 8.38 µg/m3 9.18 °C N/A 1,010.80 mbar 0.37 m/s 315.82 Deg N/A
2022-01-15 22:00 N/A 48.61 µg/m3 6.47 µg/m3 9.33 °C N/A 1,011.36 mbar 0.41 m/s 311.72 Deg N/A
2022-01-15 21:00 N/A 49.24 µg/m3 7.98 µg/m3 9.79 °C N/A 1,010.86 mbar 0.37 m/s 311.98 Deg N/A
2022-01-15 20:00 N/A 48.77 µg/m3 6.51 µg/m3 10.1 °C N/A 1,010.65 mbar 0.42 m/s 309.43 Deg N/A
2022-01-15 19:00 N/A 60.19 µg/m3 5.24 µg/m3 10.9 °C N/A 1,010.39 mbar 0.51 m/s 313.38 Deg N/A
2022-01-15 18:00 N/A 59.4 µg/m3 3.65 µg/m3 11.52 °C N/A 1,009.98 mbar 0.53 m/s 321.2 Deg N/A
2022-01-15 17:00 N/A 77.12 µg/m3 2.67 µg/m3 12.96 °C N/A 1,009.77 mbar 1.22 m/s 355 Deg N/A
2022-01-15 16:00 N/A 83.79 µg/m3 1.67 µg/m3 13.57 °C N/A 1,009.50 mbar 1.88 m/s 9.5 Deg N/A
2022-01-15 15:00 N/A 85.93 µg/m3 1.2 µg/m3 13.99 °C N/A 1,009.40 mbar 1.95 m/s 24.05 Deg N/A
2022-01-15 14:00 N/A 82.76 µg/m3 2.35 µg/m3 14.35 °C N/A 1,009.58 mbar 1.8 m/s 100.8 Deg N/A
2022-01-15 13:00 N/A 82.52 µg/m3 3.65 µg/m3 13.86 °C N/A 1,010.46 mbar 2.24 m/s 19.28 Deg N/A
2022-01-15 12:00 N/A 78.2 µg/m3 4.77 µg/m3 13.78 °C N/A 1,011.28 mbar 1.73 m/s 177.42 Deg N/A
2022-01-15 11:00 N/A 74.24 µg/m3 5.68 µg/m3 13.36 °C N/A 1,011.78 mbar 1.44 m/s 259.75 Deg N/A
2022-01-15 10:00 N/A 63.71 µg/m3 5.9 µg/m3 12.61 °C N/A 1,011.74 mbar 0.8 m/s 339.59 Deg N/A
2022-01-15 09:00 N/A 41.18 µg/m3 4.81 µg/m3 10.76 °C N/A 1,011.73 mbar 0.64 m/s 306.7 Deg N/A
2022-01-15 08:00 N/A 39.61 µg/m3 2.61 µg/m3 8.14 °C N/A 1,011.88 mbar 0.35 m/s 314.96 Deg N/A
2022-01-15 07:00 N/A 43.21 µg/m3 0.91 µg/m3 7.25 °C N/A 1,011.68 mbar 0.34 m/s 304.91 Deg N/A
2022-01-15 06:00 N/A 40.29 µg/m3 2.14 µg/m3 7.16 °C N/A 1,011.45 mbar 0.42 m/s 292.28 Deg N/A
2022-01-15 05:00 N/A 49.43 µg/m3 1.97 µg/m3 7.72 °C N/A 1,011.76 mbar 0.54 m/s 292.5 Deg N/A
2022-01-15 04:00 N/A 51.71 µg/m3 2.31 µg/m3 7.37 °C N/A 1,012.34 mbar 0.42 m/s 288.38 Deg N/A
2022-01-15 03:00 N/A 50.46 µg/m3 3.33 µg/m3 7.3 °C N/A 1,012.96 mbar 0.63 m/s 284.15 Deg N/A
2022-01-15 02:00 N/A 41.82 µg/m3 4.43 µg/m3 7.27 °C N/A 1,013.27 mbar 0.22 m/s 302.57 Deg N/A
2022-01-15 01:00 N/A 61.69 µg/m3 5.03 µg/m3 7.96 °C N/A 1,013.42 mbar 0.31 m/s 296 Deg N/A
2022-01-15 00:00 N/A 55.21 µg/m3 11.94 µg/m3 8.18 °C N/A 1,014.16 mbar 0.57 m/s 298.88 Deg N/A
2022-01-14 23:00 N/A 64.88 µg/m3 11.03 µg/m3 8.55 °C N/A 1,014.72 mbar 0.47 m/s 300.06 Deg N/A
2022-01-14 22:00 N/A 65.82 µg/m3 10.86 µg/m3 8.88 °C N/A 1,014.96 mbar 0.61 m/s 306.77 Deg N/A
2022-01-14 21:00 N/A 52.07 µg/m3 8.42 µg/m3 8.89 °C N/A 1,015.09 mbar 0.4 m/s 322.35 Deg N/A
2022-01-14 20:00 N/A 51.59 µg/m3 7.38 µg/m3 9.75 °C N/A 1,015.03 mbar 0.6 m/s 342.44 Deg N/A
2022-01-14 19:00 N/A 43.83 µg/m3 6.26 µg/m3 10.67 °C N/A 1,014.85 mbar 0.4 m/s 237.93 Deg N/A
2022-01-14 18:00 N/A 66.72 µg/m3 5.7 µg/m3 11.6 °C N/A 1,014.55 mbar 1.08 m/s 41.7 Deg N/A
2022-01-14 17:00 N/A 74.49 µg/m3 5.26 µg/m3 12.02 °C N/A 1,014.43 mbar 1.57 m/s 41.92 Deg N/A
2022-01-14 16:00 N/A 77.95 µg/m3 4.56 µg/m3 12.5 °C N/A 1,014.54 mbar 2.12 m/s 101.5 Deg N/A
2022-01-14 15:00 N/A 77.52 µg/m3 4.94 µg/m3 12.71 °C N/A 1,014.56 mbar 2.73 m/s 107.42 Deg N/A
2022-01-14 14:00 N/A 78.33 µg/m3 5 µg/m3 12.39 °C N/A 1,014.93 mbar 2.8 m/s 191.77 Deg N/A
2022-01-14 13:00 N/A 76.66 µg/m3 4.01 µg/m3 12.49 °C N/A 1,015.55 mbar 2.63 m/s 267.9 Deg N/A
2022-01-14 12:00 N/A 77.3 µg/m3 5.6 µg/m3 12.4 °C N/A 1,016.02 mbar 3.2 m/s 238.22 Deg N/A
2022-01-14 11:00 N/A 73.69 µg/m3 4.58 µg/m3 12.37 °C N/A 1,016.19 mbar 2.89 m/s 291.82 Deg N/A
2022-01-14 10:00 N/A 71.46 µg/m3 3.45 µg/m3 12.04 °C N/A 1,016.00 mbar 2.75 m/s 299.18 Deg N/A
2022-01-14 09:00 N/A 67.97 µg/m3 3.77 µg/m3 11.86 °C N/A 1,015.78 mbar 2.83 m/s 259.68 Deg N/A
2022-01-14 08:00 N/A 71.11 µg/m3 4.07 µg/m3 11.62 °C N/A 1,015.70 mbar 3.01 m/s 330.18 Deg N/A

It is to be noted that the data is provisional and subject to quality assurance procedures. For validated data kindly refer your request to contact.air@era.org.mt